Regional Weather Roundup
Issued by NWS

Home | Current Version | Previous Version | Text Only | Print | Product List | Glossary Off
Versions: 1 2 3 4 5 6 7 8 9 10 11 12 13 14 15 16 17 18 19 20 21 22 23 24 25 26 27 28 29 30 31 32 33 34 35 36 37 38 39 40 41 42 43 44 45 46 47 48 49 50

000
ASUS45 KCYS 200810
RWRWY

WYOMING REGIONAL WEATHER ROUNDUP
NATIONAL WEATHER SERVICE CHEYENNE WY
200 AM MDT SAT SEP 20 2014

NOTE:  "FAIR" INDICATES FEW OR NO CLOUDS BELOW 12,000 FEET
WITH NO SIGNIFICANT WEATHER AND/OR OBSTRUCTIONS TO VISIBILITY.

WYZ001-200900-
YELLOWSTONE NATIONAL PARK

CITY           SKY/WX    TMP DP  RH WIND       PRES   REMARKS
LK YELLOWSTONE   N/A     40  37  89 CALM      30.35R
W YELLOWSTONE  NOT AVBL

$$
WYZ002>013-054>058-071-098>099-200900-
NORTHERN WYOMING

CITY           SKY/WX    TMP DP  RH WIND       PRES   REMARKS
JACKSON        CLEAR     43  39  87 N6        30.27R
CODY             N/A    N/A N/A N/A MISG        N/A
GREYBULL       CLEAR     57  45  64 CALM      30.08R
WORLAND        CLEAR     56  45  66 S5        30.10R
SHERIDAN       MOCLDY    53  46  77 CALM      30.08R
BUFFALO        MOCLDY    56  45  66 W7        30.14R
GILLETTE       PTCLDY    57  46  66 CALM      30.09R
HULETT         FAIR      52  45  76 MISG      30.08
NEWCASTLE      FAIR      59  43  55 NW6       30.09

$$
WYZ014>020-022>026-101>103-200900-
CENTRAL WYOMING

CITY           SKY/WX    TMP DP  RH WIND       PRES   REMARKS
BIG PINEY      CLEAR     42  34  73 E3        30.29R
PINEDALE       SUNNY     37  36  93 W6        30.30R WCI  33
DUBOIS         FAIR      46  36  66 NW10      30.28R
LANDER         CLEAR     54  33  45 CALM      30.16R
RIVERTON       CLEAR     58  42  55 NE10      30.16R
CASPER         CLEAR     49  42  77 NW8       30.17R
DOUGLAS        CLEAR     49  43  80 CALM      30.15R

$$
WYZ021-027>030-104>119-200900-
SOUTHERN WYOMING

CITY           SKY/WX    TMP DP  RH WIND       PRES   REMARKS
EVANSTON       CLEAR     56  38  50 E3        30.30R
KEMMERER       MOSUNNY   46  36  66 NW10      30.30S
FORT BRIDGER   FAIR      53  38  57 SW7       30.32S
ROCK SPRINGS   PTCLDY    52  34  50 SW7       30.27R
DIXON          FAIR      47  38  72 CALM      30.27S
RAWLINS        CLEAR     49  32  52 W5        30.23R
SARATOGA       FAIR      43  36  75 S9        30.26R
LARAMIE        CLEAR     47  39  74 NE9       30.25R
CHEYENNE       CLEAR     61  41  47 NW12      30.17R
TORRINGTON     CLEAR     59  49  69 W6        30.06R
PINE BLUFFS    FAIR      55  45  67 CALM      30.11R

$$



USA.gov is the U.S. government's official web portal to all federal, state and local government web resources and services.